Regional Weather Roundup
Issued by NWS Mobile, AL

Home | Current Version | Previous Version | Text Only | Print | Product List | Glossary On
Versions: 1 2 3 4 5 6 7 8 9 10 11 12 13 14 15 16 17 18 19 20 21 22 23 24 25 26 27 28 29 30 31 32 33 34 35 36 37 38 39 40 41 42 43 44 45 46 47 48 49 50
000
ASUS44 KMOB 301710
RWRMOB
REGIONAL WEATHER ROUNDUP
NATIONAL WEATHER SERVICE MOBILE AL
1100 AM CST FRI JAN 30 2015

NOTE: "FAIR" INDICATES FEW OR NO CLOUDS BELOW 12,000 FEET WITH NO
      SIGNIFICANT WEATHER AND/OR OBSTRUCTIONS TO VISIBILITY.

  * THESE STATIONS ARE PART OF THE UNIVERSITY OF SOUTH ALABAMA
    MESONET AND ARE NOT UNDER NWS OR FAA QUALITY CONTROL.

ALZ061>064-301800-
COASTAL ALABAMA

CITY           SKY/WX    TMP DP  RH WIND       PRES   REMARKS
MOBILE REG APT PTSUNNY   50  31  48 N14       30.39S
BROOKLEY FIELD MOSUNNY   53  33  46 N17       30.39F
USA CAMPUS*    NOT AVBL
DOG RIVER*     NOT AVBL


CITY           SKY/WX    TMP DP  RH WIND       PRES   REMARKS
MOUNT VERNON*  NOT AVBL
SARALAND*      NOT AVBL
BAY MINETTE*   NOT AVBL
LOXLEY*        NOT AVBL
ROBERTSDALE*   NOT AVBL
FAIRHOPE*        N/A     52  34  50 VRB10     30.35F
ELBERTA*         N/A     52  34  50 N16       30.35S
FOLEY*         NOT AVBL
GRAND BAY*     NOT AVBL
DAUPHIN ISLND* NOT AVBL
BON SCOUR NWR* NOT AVBL
GULF SHORES    MOSUNNY   53  34  49 N12       30.36S

$$

ALZ051>060-301800-
INTERIOR SOUTHWEST AND SOUTH CENTRAL ALABAMA

CITY           SKY/WX    TMP DP  RH WIND       PRES   REMARKS
GREENVILLE     SUNNY     51  29  42 N9        30.36F
EVERGREEN      SUNNY     53  32  44 NE12      30.39S
CASTLEBERRY*   NOT AVBL
ATMORE*          N/A     52  34  50 NW16      30.39S
DIXIE*           N/A    N/A N/A N/A N5        30.34S
ANDALUSIA/OPP  SUNNY     57  30  35 NE8       30.35F
ANDALUSIA*       N/A    N/A N/A N/A N13       30.34F
FLORALA APT    SUNNY     54  31  41 N10G17    30.36F
FLORALA*         N/A     52  32  46 N10       30.32F

$$

FLZ001>006-301800-
WESTERN FLORIDA PANHANDLE

CITY           SKY/WX    TMP DP  RH WIND       PRES   REMARKS
PENSACOLA      SUNNY     54  33  45 N12G20    30.35S
NAS PENSACOLA  PTSUNNY   54  34  46 N13       30.34F
MILTON         PTSUNNY   53  32  44 N14G20    30.35F
WHTNG S FIELD  PTSUNNY   56  33  42 N14       30.35F


CITY           SKY/WX    TMP DP  RH WIND       PRES   REMARKS
WALNUT HILL*   NOT AVBL
JAY*           NOT AVBL
DUKE FIELD     MOSUNNY   54  32  43 N15       30.33F
CRESTVIEW      SUNNY     54  33  45 N12G21    30.36F
VALPARAISO     MOSUNNY   54  33  44 N16       30.33S
DESTIN         SUNNY     55  35  47 N14G21    30.33F

$$

MSZ076-079-301800-
INTERIOR SOUTHEAST MISSISSIPPI

CITY           SKY/WX    TMP DP  RH WIND       PRES   REMARKS
LEAKESVILLE*   NOT AVBL
AGRICOLA*      NOT AVBL

$$

MARINE OBSERVATIONS

STATION/POSITION TIME  TEMP    WIND        PRES    WAVE
                       AIR SEA DIR/SP/G            HT/PER
                 (UTC) (F)     (DEG/KT/KT) (MB)    (FT/S)
PASCAGOULA       1600   48     360/ 14/ 18 1028.5R
PETIT BOIS ISLND 1600   49      10/ 19/ 22 1028.8R
KATRINA CUT      1500   48      30/ 21     1028.8R
CEDAR POINT      1500   45      20/ 19     1027.8S
E DAUPHIN ISLAND 1600   47      10/ 24/ 27 1028.2R
MIDDLE BAY LIGHT 1500   48      10/ 23     1027.4R
USCG MOBILE BAY  1600   48 54   20/ 11/ 16 1028.2R
STATE DOCKS      1600   50 51              1028.9R
MEAHER PARK      1600   49      10/  9     1029.5R
FORT MORGAN      1600   47      30/ 23/ 26 1027.7R
12 S ORANGE BCH  1700   51 62   10/ 17/ 21 1026.9R   4/ 4
PENSACOLA BAY    1600   51 58   10/ 10/ 16 1028.0S
64 S DAUPHIN ISL 1551   53 69   20/ 19/ 25 1027.9    6/ 6

$$

SELECTED LOCATIONS ACROSS THE REGION

CITY           SKY/WX    TMP DP  RH WIND       PRES   REMARKS
NEW ORLEANS    PTSUNNY   52  38  58 N14       30.41S
GULFPORT       MOSUNNY   53  33  46 N13       30.38F
PASCAGOULA AP  MOSUNNY   53  33  46 N16       30.38S
PASCAGOULA*    NOT AVBL
HATTIESBURG    SUNNY     51  32  48 N10       30.43F
LAUREL         SUNNY     52  28  40 NE9       30.44F
MERIDIAN       SUNNY     50  28  42 N9        30.44F
JACKSON        MOSUNNY   48  30  49 N15       30.46F
MONTGOMERY     SUNNY     52  29  41 VRB7      30.39F
TROY           SUNNY     52  28  39 N14       30.37S
KINSTON*       NOT AVBL
GENEVA*        NOT AVBL
ASHFORD*         N/A    N/A N/A N/A N13       30.34F
DOTHAN         SUNNY     52  30  43 N13       30.36S
PANAMA CITY    MOSUNNY   54  36  50 N15G24    30.31S

$$



USA.gov is the U.S. government's official web portal to all federal, state and local government web resources and services.